When you browse on this site, cookies collect data to enhance your experience and personalize the content and advertising you see.
Visit our Privacy Policy to learn more. By continuing to use the site, you agree to this use of cookies and data.
  • In Hungary
  • List of Countries
  • For 7 days
  • Water Temperature
  • Weather Map
  • News
  • Weather Widgets
  • user-avatar
    Login

    Hourly Weather Shatrische

    Today, 26 January, Sunday

    Time Temperature Precipitation Wind Pressure Humidity
    00:00 -5°C° 0 mm 6 mps 738 mmHg 80%
    01:00 -6°C° 0 mm 7 mps 738 mmHg 81%
    02:00 -6°C° 0 mm 7 mps 739 mmHg 82%
    03:00 -6°C° 0 mm 7 mps 739 mmHg 82%
    04:00 -6°C° 0 mm 7 mps 740 mmHg 82%
    05:00 -5°C° 0 mm 6 mps 741 mmHg 83%
    06:00 -5°C° 0 mm 6 mps 742 mmHg 83%
    07:00 -5°C° 0 mm 6 mps 743 mmHg 82%
    08:00 -6°C° 0 mm 6 mps 744 mmHg 81%
    09:00 -6°C° 0 mm 6 mps 744 mmHg 81%
    10:00 -5°C° 0 mm 6 mps 745 mmHg 80%
    11:00 -5°C° 0 mm 6 mps 746 mmHg 79%
    12:00 -5°C° 0 mm 6 mps 747 mmHg 78%
    13:00 -5°C° 0 mm 5 mps 747 mmHg 80%
    14:00 -5°C° 0 mm 5 mps 747 mmHg 81%
    15:00 -5°C° 0 mm 5 mps 747 mmHg 82%
    16:00 -4°C° 0 mm 4 mps 747 mmHg 83%
    17:00 -4°C° 0 mm 4 mps 747 mmHg 85%
    18:00 -4°C° 0 mm 4 mps 747 mmHg 87%
    19:00 -5°C° 0 mm 5 mps 747 mmHg 86%
    20:00 -5°C° 0 mm 5 mps 746 mmHg 85%
    21:00 -5°C° 0 mm 5 mps 746 mmHg 84%
    22:00 -4°C° 0.1 mm 6 mps 746 mmHg 87%
    23:00 -4°C° 0.1 mm 6 mps 745 mmHg 89%

    Tomorrow, 27 January, Monday

    Time Temperature Precipitation Wind Pressure Humidity
    00:00 -4°C° 0.1 mm 7 mps 745 mmHg 92%
    01:00 -3°C° 0.3 mm 7 mps 744 mmHg 93%
    02:00 -3°C° 0.3 mm 7 mps 744 mmHg 94%
    03:00 -2°C° 0.3 mm 8 mps 744 mmHg 95%
    04:00 -2°C° 0.1 mm 7 mps 744 mmHg 95%
    05:00 -1°C° 0.1 mm 7 mps 744 mmHg 95%
    06:00 -1°C° 0.1 mm 7 mps 744 mmHg 95%
    07:00 -1°C° 0.1 mm 6 mps 744 mmHg 95%
    08:00 -1°C° 0.1 mm 6 mps 745 mmHg 95%
    09:00 0°C° 0.1 mm 5 mps 746 mmHg 95%
    10:00 0°C° 0.1 mm 5 mps 746 mmHg 95%
    11:00 0°C° 0.1 mm 4 mps 747 mmHg 94%
    12:00 0°C° 0.1 mm 3 mps 748 mmHg 94%
    13:00 0°C° 0 mm 3 mps 748 mmHg 92%
    14:00 +1°C° 0 mm 2 mps 748 mmHg 90%
    15:00 +1°C° 0 mm 1 mps 749 mmHg 88%
    16:00 -1°C° 0 mm 2 mps 749 mmHg 89%
    17:00 -2°C° 0 mm 2 mps 750 mmHg 89%
    18:00 -2°C° 0 mm 2 mps 750 mmHg 90%
    19:00 -2°C° 0.1 mm 2 mps 750 mmHg 91%
    20:00 -4°C° 0.1 mm 3 mps 750 mmHg 92%
    21:00 -4°C° 0.1 mm 3 mps 750 mmHg 94%
    22:00 -4°C° 0.1 mm 4 mps 750 mmHg 94%
    23:00 -4°C° 0.1 mm 4 mps 750 mmHg 94%

    Day after tomorrow, 28 January, Tuesday

    Time Temperature Precipitation Wind Pressure Humidity
    00:00 -4°C° 0.1 mm 4 mps 750 mmHg 95%
    01:00 -4°C° 0.5 mm 4 mps 750 mmHg 96%
    02:00 -3°C° 0.5 mm 4 mps 750 mmHg 96%
    03:00 -3°C° 0.5 mm 4 mps 749 mmHg 97%
    04:00 -3°C° 0.6 mm 4 mps 749 mmHg 97%
    05:00 -2°C° 0.6 mm 3 mps 749 mmHg 98%
    06:00 -1°C° 0.6 mm 3 mps 748 mmHg 98%
    07:00 -1°C° 0.3 mm 3 mps 748 mmHg 98%
    08:00 -1°C° 0.3 mm 3 mps 748 mmHg 97%
    09:00 -1°C° 0.3 mm 3 mps 748 mmHg 97%
    10:00 -2°C° 0.2 mm 4 mps 748 mmHg 97%
    11:00 -2°C° 0.2 mm 4 mps 748 mmHg 97%
    12:00 -2°C° 0.2 mm 4 mps 748 mmHg 97%
    13:00 -2°C° 0.1 mm 4 mps 747 mmHg 97%
    14:00 -2°C° 0.1 mm 4 mps 747 mmHg 96%
    15:00 -2°C° 0.1 mm 4 mps 747 mmHg 96%
    16:00 -2°C° 0 mm 4 mps 747 mmHg 96%
    17:00 -2°C° 0 mm 4 mps 747 mmHg 96%
    18:00 -2°C° 0 mm 4 mps 747 mmHg 96%
    19:00 -2°C° 0.1 mm 4 mps 747 mmHg 97%
    20:00 -2°C° 0.1 mm 4 mps 747 mmHg 97%
    21:00 -2°C° 0.1 mm 4 mps 747 mmHg 97%
    22:00 -2°C° 0 mm 4 mps 748 mmHg 97%
    23:00 -2°C° 0 mm 4 mps 748 mmHg 96%

    29 January, Wednesday

    Time Temperature Precipitation Wind Pressure Humidity
    00:00 -2°C° 0 mm 4 mps 748 mmHg 96%
    01:00 -1°C° 0 mm 3 mps 747 mmHg 96%
    02:00 -1°C° 0 mm 3 mps 747 mmHg 96%
    03:00 -1°C° 0 mm 3 mps 747 mmHg 96%
    04:00 -1°C° 0 mm 3 mps 747 mmHg 96%
    05:00 -1°C° 0 mm 3 mps 747 mmHg 96%
    06:00 -1°C° 0 mm 3 mps 747 mmHg 96%
    07:00 -1°C° 0 mm 3 mps 747 mmHg 95%
    08:00 -1°C° 0 mm 3 mps 747 mmHg 95%
    09:00 -1°C° 0 mm 2 mps 747 mmHg 95%
    10:00 -1°C° 0 mm 3 mps 747 mmHg 97%
    11:00 -1°C° 0 mm 3 mps 747 mmHg 98%
    12:00 0°C° 0 mm 3 mps 747 mmHg 99%
    13:00 0°C° 0 mm 3 mps 746 mmHg 99%
    14:00 0°C° 0 mm 3 mps 746 mmHg 99%
    15:00 0°C° 0 mm 3 mps 746 mmHg 99%
    16:00 -1°C° 0.1 mm 4 mps 745 mmHg 99%
    17:00 -1°C° 0.1 mm 4 mps 745 mmHg 98%
    18:00 -1°C° 0.1 mm 5 mps 745 mmHg 97%
    19:00 -1°C° 0.2 mm 5 mps 745 mmHg 97%
    20:00 -1°C° 0.2 mm 5 mps 744 mmHg 97%
    21:00 -2°C° 0.2 mm 6 mps 744 mmHg 97%
    22:00 -2°C° 0.2 mm 6 mps 744 mmHg 97%
    23:00 -2°C° 0.2 mm 6 mps 743 mmHg 97%

    30 January, Thursday

    Time Temperature Precipitation Wind Pressure Humidity
    00:00 -2°C° 0.2 mm 6 mps 743 mmHg 97%
    01:00 -2°C° 0.2 mm 6 mps 742 mmHg 97%
    02:00 -1°C° 0.2 mm 5 mps 742 mmHg 97%
    03:00 0°C° 0.2 mm 5 mps 741 mmHg 97%
    04:00 0°C° 0.1 mm 5 mps 741 mmHg 97%
    05:00 0°C° 0.1 mm 5 mps 740 mmHg 97%
    06:00 0°C° 0.1 mm 5 mps 740 mmHg 97%
    07:00 0°C° 0.5 mm 5 mps 740 mmHg 97%
    08:00 0°C° 0.5 mm 5 mps 739 mmHg 97%
    09:00 -1°C° 0.5 mm 6 mps 739 mmHg 97%
    10:00 -1°C° 0.7 mm 6 mps 739 mmHg 97%
    11:00 -2°C° 0.7 mm 6 mps 739 mmHg 97%
    12:00 -1°C° 0.7 mm 5 mps 739 mmHg 96%
    13:00 -1°C° 0 mm 5 mps 740 mmHg 92%
    14:00 -1°C° 0 mm 5 mps 740 mmHg 87%
    15:00 -1°C° 0 mm 5 mps 741 mmHg 82%
    16:00 -1°C° 0 mm 5 mps 741 mmHg 84%
    17:00 -2°C° 0 mm 5 mps 741 mmHg 85%
    18:00 -2°C° 0 mm 5 mps 741 mmHg 86%
    19:00 -3°C° 0 mm 6 mps 741 mmHg 85%
    20:00 -3°C° 0 mm 6 mps 741 mmHg 85%
    21:00 -2°C° 0 mm 7 mps 741 mmHg 84%
    22:00 -3°C° 0 mm 7 mps 741 mmHg 83%
    23:00 -3°C° 0 mm 7 mps 741 mmHg 82%

    31 January, Friday

    Time Temperature Precipitation Wind Pressure Humidity
    00:00 -3°C° 0 mm 7 mps 741 mmHg 81%
    01:00 -3°C° 0 mm 7 mps 740 mmHg 82%
    02:00 -3°C° 0 mm 7 mps 740 mmHg 83%
    03:00 -4°C° 0 mm 8 mps 740 mmHg 85%
    04:00 -4°C° 0.2 mm 8 mps 739 mmHg 88%
    05:00 -4°C° 0.2 mm 8 mps 739 mmHg 92%
    06:00 -4°C° 0.2 mm 8 mps 739 mmHg 95%
    07:00 -4°C° 0.4 mm 8 mps 739 mmHg 95%
    08:00 -4°C° 0.4 mm 8 mps 739 mmHg 95%
    09:00 -3°C° 0.4 mm 7 mps 739 mmHg 96%
    10:00 -3°C° 0.2 mm 7 mps 739 mmHg 96%
    11:00 -3°C° 0.2 mm 7 mps 739 mmHg 96%
    12:00 -3°C° 0.2 mm 7 mps 739 mmHg 96%
    13:00 -3°C° 0.3 mm 6 mps 739 mmHg 95%
    14:00 -3°C° 0.3 mm 6 mps 739 mmHg 95%
    15:00 -2°C° 0.3 mm 5 mps 740 mmHg 94%
    16:00 -2°C° 0 mm 5 mps 740 mmHg 93%
    17:00 -2°C° 0 mm 4 mps 740 mmHg 92%
    18:00 -2°C° 0 mm 4 mps 741 mmHg 91%
    19:00 -2°C° 0 mm 4 mps 741 mmHg 91%
    20:00 -4°C° 0 mm 5 mps 742 mmHg 92%
    21:00 -4°C° 0 mm 5 mps 742 mmHg 92%
    22:00 -3°C° 0 mm 4 mps 743 mmHg 92%
    23:00 -3°C° 0 mm 4 mps 743 mmHg 91%
    Show more